Time,TemperatureF,DewpointF,PressureIn,WindDirection,WindDirectionDegrees,WindSpeedMPH,WindSpeedGustMPH,Humidity,HourlyPrecipIn,Conditions,Clouds,dailyrainin,SoftwareType,DateUTC
2013-05-16 00:00:00,45.0,-99.9,-100.00,SE,140,2.0,-999.0,-999,-99.99,,,-99.99,,2013-05-16 07:00:00,
2013-05-16 01:00:00,43.0,-99.9,-100.00,ESE,113,2.0,-999.0,-999,-99.99,,,-99.99,,2013-05-16 08:00:00,
2013-05-16 02:00:00,40.0,-99.9,-100.00,SSE,149,1.0,-999.0,-999,-99.99,,,-99.99,,2013-05-16 09:00:00,
2013-05-16 03:00:00,38.0,-99.9,-100.00,SSE,149,1.0,-999.0,-999,-99.99,,,-99.99,,2013-05-16 10:00:00,
2013-05-16 04:00:00,37.0,-99.9,-100.00,WSW,241,2.0,-999.0,-999,-99.99,,,-99.99,,2013-05-16 11:00:00,
2013-05-16 05:00:00,39.0,-99.9,-100.00,NNE,24,3.0,-999.0,-999,-99.99,,,-99.99,,2013-05-16 12:00:00,
2013-05-16 08:00:00,45.0,-99.9,-100.00,WSW,257,3.0,-999.0,-999,-99.99,,,-99.99,,2013-05-16 15:00:00,
2013-05-16 09:00:00,48.0,-99.9,-100.00,SW,225,5.0,-999.0,-999,-99.99,,,-99.99,,2013-05-16 16:00:00,
2013-05-16 10:00:00,52.0,-99.9,-100.00,South,187,2.0,-999.0,-999,-99.99,,,-99.99,,2013-05-16 17:00:00,
2013-05-16 11:00:00,54.0,-99.9,-100.00,SE,141,3.0,-999.0,-999,-99.99,,,-99.99,,2013-05-16 18:00:00,
2013-05-16 12:00:00,-999.0,-99.9,-100.00,ESE,116,5.0,-999.0,-999,-99.99,,,-99.99,,2013-05-16 19:00:00,
2013-05-16 13:00:00,52.0,-99.9,-100.00,SE,142,7.0,-999.0,-999,-99.99,,,-99.99,,2013-05-16 20:00:00,
2013-05-16 14:00:00,55.0,-99.9,-100.00,South,176,7.0,-999.0,-999,-99.99,,,-99.99,,2013-05-16 21:00:00,
2013-05-16 15:00:00,51.0,-99.9,-100.00,SW,233,13.0,-999.0,-999,-99.99,,,-99.99,,2013-05-16 22:00:00,
2013-05-16 16:00:00,51.0,-99.9,-100.00,SW,228,10.0,-999.0,-999,-99.99,,,-99.99,,2013-05-16 23:00:00,
2013-05-16 18:00:00,51.0,-99.9,-100.00,NW,315,5.0,-999.0,-999,-99.99,,,-99.99,,2013-05-17 01:00:00,
2013-05-16 19:00:00,49.0,-99.9,-100.00,NW,326,5.0,-999.0,-999,-99.99,,,-99.99,,2013-05-17 02:00:00,
2013-05-16 20:00:00,47.0,-99.9,-100.00,North,349,2.0,-999.0,-999,-99.99,,,-99.99,,2013-05-17 03:00:00,
2013-05-16 21:00:00,45.0,-99.9,-100.00,North,6,3.0,-999.0,-999,-99.99,,,-99.99,,2013-05-17 04:00:00,
2013-05-16 22:00:00,45.0,-99.9,-100.00,East,81,2.0,-999.0,-999,-99.99,,,-99.99,,2013-05-17 05:00:00,
2013-05-16 23:00:00,45.0,-99.9,-100.00,SE,124,2.0,-999.0,-999,-99.99,,,-99.99,,2013-05-17 06:00:00,